Wind_Speed
3 2 5 7 6 8 10 12 7 2 4 4 3 3 5 5 4 4 2 5 2 1 7 7 11 17 13 14 20 15 7 8 12 14 15 15 14 13 12 12 11 11 11 10 13 16 15 14 12 10 9 9 10 10 12 14 14 14 14 15 17 17 18 17 18 18 17 18 21 22 21 23 25 27 29 32 32 30 35 41 39 39 42 35 25 38
4 5 10 7 7 9 12 10 5 2 1 4 2 2 3 5 5 4 1 4 3 1 5 4 10 18 13 12 19 16 13 14 14 15 17 17 16 13 11 13 12 9 7 8 11 13 13 11 8 6 7 8 10 11 12 14 14 13 13 15 16 17 17 18 19 18 17 20 23 22 21 23 25 28 31 32 31 33 37 42 43 44 46 35 25 26
1 9 9 6 7 7 7 7 6 5 4 1 1 1 4 4 4 4 3 4 2 1 4 6 10 18 14 12 18 19 18 16 13 13 15 16 16 13 11 12 10 8 8 7 8 9 9 8 5 5 7 8 9 10 11 12 13 13 13 14 16 17 17 18 19 18 17 19 23 22 21 23 26 27 29 27 26 31 39 42 45 47 47 38 24 23
4 8 6 7 8 8 5 4 7 5 4 4 3 3 5 2 1 3 4 3 2 0 3 5 9 16 14 11 16 19 16 12 8 10 12 12 14 15 11 9 8 8 9 8 7 7 6 7 6 6 7 8 9 9 10 12 13 13 13 14 15 17 17 18 18 18 18 17 19 23 24 25 27 29 31 27 25 27 36 39 42 46 45 41 27 24
7 4 1 6 8 9 7 4 7 6 4 4 5 7 5 2 3 4 3 3 3 2 2 4 8 13 8 7 11 10 6 7 6 6 9 10 11 12 10 9 9 9 9 8 8 7 5 6 6 6 7 8 10 10 10 12 13 13 13 13 15 16 16 17 17 17 16 15 17 22 25 26 27 29 31 27 26 26 31 33 36 39 38 39 28 23
10 5 4 7 6 7 7 5 7 8 4 3 6 10 8 5 5 2 2 3 4 4 3 4 4 9 4 3 9 7 6 9 5 4 10 11 9 9 9 10 10 9 8 8 8 7 5 6 7 9 8 9 10 10 9 10 12 12 12 12 13 14 15 16 16 16 15 13 17 22 24 25 25 24 26 26 27 25 30 32 33 32 28 31 25 21
6 4 6 7 6 7 7 6 7 8 4 2 4 7 8 6 6 4 2 2 1 5 3 3 1 7 7 4 8 9 11 15 11 10 13 12 8 8 10 10 9 8 8 7 8 7 6 6 6 9 9 9 10 9 7 8 10 11 12 12 13 14 14 14 14 15 14 13 18 23 24 25 25 25 27 29 31 29 32 33 30 28 25 28 26 23
2 5 6 7 6 6 7 6 7 9 6 3 3 3 8 8 7 6 5 3 2 3 3 2 4 4 10 7 6 6 10 14 14 14 13 11 9 9 9 9 8 9 7 7 7 7 7 7 7 10 9 7 8 7 6 8 10 11 12 12 13 14 14 14 14 14 14 16 21 24 23 24 29 31 32 33 34 31 28 27 24 27 30 33 31 30
3 7 9 10 7 6 6 5 11 13 6 3 1 4 7 7 6 5 5 3 1 3 4 2 5 2 10 8 2 1 7 12 14 15 15 12 9 8 8 9 8 8 7 6 7 7 7 7 10 13 10 6 7 7 7 7 9 10 11 12 13 14 13 13 13 15 15 16 22 25 22 23 31 36 34 33 31 25 18 19 25 30 34 37 37 37
2 5 8 8 7 7 3 4 11 14 6 2 5 9 8 7 6 6 4 3 3 3 4 6 7 3 9 9 2 1 5 11 12 12 12 11 7 7 7 7 7 5 5 6 7 7 7 8 10 11 10 7 6 7 7 7 9 10 11 12 13 13 13 12 13 15 16 15 19 22 19 20 30 36 33 27 24 20 17 18 27 35 38 41 42 44
1 1 2 3 4 5 4 4 2 7 9 8 7 8 8 6 5 5 2 4 4 4 5 8 11 6 6 8 4 4 5 6 7 7 8 8 6 7 6 6 6 5 5 6 6 6 6 7 9 8 10 9 6 7 8 9 10 11 12 13 14 13 13 13 14 15 16 16 17 18 16 19 27 34 30 23 21 20 20 16 12 28 37 42 45 48
1 1 1 1 1 5 6 5 5 3 9 7 5 5 5 3 4 4 4 4 2 7 5 2 5 6 5 8 3 4 7 4 5 6 7 7 6 6 6 5 4 3 4 4 5 6 4 5 6 7 10 11 8 9 10 11 11 12 12 13 14 14 13 13 14 14 15 16 17 16 16 18 24 30 28 21 18 19 22 21 10 20 32 39 43 46
2 5 4 1 1 5 6 5 5 2 3 3 5 7 5 2 2 1 3 1 3 6 2 1 1 2 9 12 7 11 14 10 9 8 8 6 6 6 5 4 3 1 2 3 4 5 4 5 5 6 10 11 11 12 12 12 12 12 12 13 14 14 14 14 13 14 14 15 17 16 16 17 19 25 25 19 15 17 21 18 17 24 29 35 38 40
2 3 4 4 2 4 9 8 4 3 4 4 7 7 5 4 2 4 4 2 4 5 1 2 2 2 7 9 10 16 19 14 9 8 9 7 6 7 5 4 4 3 3 4 4 5 5 6 6 6 10 12 12 13 13 12 12 13 13 14 15 14 13 13 13 13 14 15 18 17 17 16 15 20 21 16 13 16 18 13 7 17 26 33 35 37
6 6 7 11 5 7 12 10 7 8 7 7 6 5 5 6 5 6 5 3 4 2 2 2 3 4 5 4 7 12 12 11 7 6 8 7 7 6 5 5 5 4 4 4 4 6 6 6 6 8 10 13 12 12 13 13 12 14 14 15 16 14 14 14 12 12 13 15 17 17 16 15 13 15 17 14 10 13 14 11 3 8 19 27 34 38
8 7 5 6 3 12 16 8 7 10 6 4 2 3 4 5 5 4 4 5 4 1 2 2 4 6 5 7 11 9 8 8 8 6 6 7 7 5 6 7 6 5 5 4 5 6 6 5 6 9 11 13 13 11 12 13 13 14 15 15 15 14 13 13 12 12 11 13 15 16 16 14 13 13 15 13 9 9 11 9 5 3 11 19 26 32
6 4 2 1 2 10 11 7 8 7 4 3 3 5 5 2 7 5 2 1 4 2 4 3 6 6 4 9 13 12 12 10 8 7 7 8 6 5 8 9 8 7 6 6 6 6 6 6 6 10 12 14 14 13 13 13 13 14 14 13 14 13 13 13 12 10 9 10 12 14 15 14 13 13 14 14 11 7 7 7 6 5 7 12 16 20
4 2 2 2 3 3 1 3 4 2 3 6 5 6 3 2 3 4 2 2 3 4 4 3 9 7 2 6 6 4 10 13 11 8 6 6 6 7 9 9 9 9 7 6 6 6 5 6 7 10 14 16 15 14 14 13 12 13 13 12 12 12 12 11 10 9 8 9 11 12 13 13 13 13 13 14 13 9 5 5 7 8 9 12 14 15
3 2 2 0 1 0 2 2 2 2 1 2 4 5 4 2 2 2 3 3 2 5 4 3 6 6 7 8 4 3 8 11 11 7 7 9 9 9 9 9 9 8 7 6 6 6 6 6 7 10 14 16 17 16 15 13 12 12 13 13 13 12 11 10 9 9 10 10 11 11 10 10 11 12 13 14 14 12 8 4 6 9 11 13 17 18
1 3 3 1 1 1 2 4 8 6 2 2 1 3 1 1 4 3 4 3 3 5 4 4 2 4 8 7 7 10 11 9 9 6 8 11 10 10 9 8 9 8 7 7 6 7 7 7 8 12 15 16 17 17 15 14 14 14 14 14 14 14 13 12 12 11 12 12 12 11 10 9 9 10 11 12 13 14 12 8 5 7 10 13 16 19
2 4 4 1 1 2 2 7 10 10 8 4 4 6 4 1 2 1 1 2 4 4 4 4 5 7 6 4 9 13 13 12 10 7 7 9 8 9 9 8 8 8 8 8 7 7 7 7 8 11 12 12 13 14 14 15 15 15 15 16 16 16 16 16 15 14 13 13 13 12 11 10 9 9 10 10 11 13 14 12 10 7 8 10 13 17
4 5 4 3 2 4 3 3 3 6 11 10 8 9 10 7 4 3 4 2 3 3 5 4 7 9 5 4 8 10 10 9 7 6 7 7 7 8 8 7 7 7 7 8 8 7 7 7 7 8 10 11 12 13 14 15 15 16 17 18 18 18 18 18 17 16 14 14 14 14 13 12 11 10 10 10 11 11 12 14 14 12 11 10 11 14
6 1 3 4 4 4 1 1 1 2 7 7 5 6 8 7 7 7 6 4 2 2 2 2 5 7 2 5 7 7 6 3 2 6 6 6 6 6 5 4 5 6 6 6 7 6 6 5 5 7 9 12 13 14 15 15 16 18 18 18 19 19 19 19 18 17 16 15 15 14 14 15 14 14 13 12 12 12 11 12 13 14 14 13 13 13
4 2 4 4 0 1 2 2 2 2 2 4 8 8 7 8 10 6 2 2 3 4 4 3 6 6 2 2 4 4 3 2 3 6 7 7 5 4 4 4 5 6 6 6 6 5 5 3 3 4 6 9 13 14 16 17 18 19 19 19 20 20 20 19 18 18 18 17 16 15 16 16 17 17 16 15 14 14 13 12 12 13 16 17 16 15
6 5 6 4 1 0 0 1 1 1 5 6 7 8 8 9 9 3 1 1 1 6 8 6 9 8 4 3 1 2 3 4 6 6 6 6 5 4 5 5 5 6 6 6 6 5 5 4 4 5 6 8 12 14 16 18 19 21 21 20 20 20 20 20 19 20 19 18 17 17 17 17 18 19 20 18 17 16 15 14 14 14 15 17 19 18
7 7 8 7 6 6 5 5 5 5 6 3 3 9 12 13 12 8 4 4 5 8 9 8 11 8 4 4 3 3 4 5 8 6 5 6 6 5 5 5 5 6 6 7 7 6 7 6 6 6 6 9 12 14 16 18 19 21 22 22 21 20 20 20 20 21 20 19 19 18 18 18 19 20 20 20 20 19 18 17 16 16 16 17 19 20
4 6 11 13 12 11 10 7 5 9 8 8 12 16 15 15 15 11 7 7 11 11 8 11 14 12 12 8 3 5 6 6 7 6 4 6 6 6 6 5 5 5 6 7 6 6 7 7 8 8 8 10 14 16 17 18 19 20 21 22 22 21 20 20 20 21 21 21 21 21 21 20 20 19 19 19 20 20 20 19 18 18 18 18 19 20
3 6 12 16 18 18 16 12 9 13 13 15 19 19 16 16 17 15 12 14 15 11 11 16 16 16 21 15 6 5 7 6 8 8 6 6 5 5 5 4 5 6 6 6 7 8 9 9 10 9 8 10 13 15 17 17 18 18 20 21 22 22 21 20 20 21 22 22 22 23 23 21 20 19 19 19 19 20 21 21 20 19 18 18 19 19
5 9 13 15 18 19 19 16 11 12 13 15 18 20 20 19 20 20 20 21 17 11 14 22 22 20 22 16 9 9 7 6 9 8 5 3 3 4 5 5 7 7 6 7 9 10 10 11 11 10 9 9 11 14 16 17 17 17 19 21 22 22 22 21 21 22 22 22 23 23 22 21 20 19 18 19 19 20 20 21 21 21 20 19 19 18
6 10 14 16 17 19 21 17 11 12 12 13 15 19 21 22 23 23 22 24 23 19 21 27 28 23 17 13 11 10 8 8 7 3 3 4 5 5 6 7 8 7 7 9 10 11 11 12 11 9 8 8 10 14 16 17 18 18 20 22 23 23 22 22 23 23 23 24 24 23 21 20 20 19 18 19 19 20 20 21 21 21 21 21 20 20
8 10 14 15 13 16 20 17 13 14 14 14 14 15 18 20 21 22 21 22 22 22 25 28 27 22 15 12 12 8 8 9 8 4 4 6 7 7 7 8 8 7 8 9 10 11 11 11 10 8 9 9 12 16 18 19 18 18 20 23 25 25 23 23 24 24 24 25 23 22 20 19 19 18 18 18 19 19 20 20 21 21 22 22 22 22
9 10 11 12 11 12 15 17 18 17 17 18 18 14 14 16 17 19 21 22 20 20 22 22 20 18 12 10 10 8 8 10 11 9 8 8 9 10 10 10 9 9 10 10 10 11 11 12 12 11 11 12 14 17 20 21 18 17 21 24 25 25 24 24 24 24 24 23 22 21 21 20 19 18 18 18 18 19 19 19 20 21 22 22 23 23
9 9 9 10 10 10 14 16 16 15 14 15 14 15 16 17 19 19 19 22 21 18 16 15 17 16 7 5 8 8 8 10 10 9 9 12 13 13 12 11 10 10 11 10 11 14 15 14 12 12 13 14 17 22 25 24 20 19 23 25 25 24 25 25 25 25 24 22 21 21 21 20 20 20 19 18 18 18 18 19 20 21 22 22 22 22
11 11 8 8 7 9 13 13 11 12 10 5 9 18 22 21 21 20 19 23 23 19 15 15 19 16 7 6 8 9 8 9 9 9 12 14 14 12 11 11 10 10 12 13 15 16 14 12 10 11 13 16 21 26 26 24 22 21 22 22 24 25 26 27 26 25 24 23 22 22 21 21 22 22 21 19 17 16 17 19 20 21 22 22 21 22
14 12 8 7 7 7 9 11 12 10 5 5 10 19 23 22 22 21 21 25 24 20 19 20 22 17 8 6 7 7 8 8 8 10 14 16 14 11 9 9 10 13 15 16 17 15 12 10 9 10 14 20 25 25 23 23 22 20 18 20 23 26 27 28 27 26 25 24 23 23 23 22 22 22 23 21 19 18 18 18 19 20 20 20 21 22
14 11 8 7 7 6 8 12 12 5 5 13 16 15 15 16 17 16 18 23 23 19 17 19 23 20 14 12 10 7 7 6 6 12 18 17 13 10 9 11 14 18 18 15 13 12 11 12 14 16 21 26 28 24 22 24 23 20 19 21 24 27 28 27 27 27 27 26 25 25 25 24 23 23 22 22 21 21 21 21 20 19 18 19 19 20
15 12 9 7 8 8 9 13 12 7 7 13 12 9 11 14 15 16 15 19 21 19 16 17 22 22 18 17 14 8 5 5 9 18 22 18 14 12 15 20 21 18 15 12 13 15 18 20 23 25 27 28 26 24 24 24 23 21 21 22 24 25 26 26 27 28 28 28 28 27 26 25 25 24 23 22 22 23 24 23 23 21 19 19 19 19
16 14 11 9 7 8 10 11 11 11 11 9 8 8 13 16 18 18 15 15 14 14 16 18 21 22 18 16 13 7 3 4 12 18 13 9 12 16 19 21 18 13 11 12 14 16 20 24 26 27 27 25 23 25 27 25 23 23 22 22 24 25 25 25 26 28 29 29 29 28 27 26 25 25 24 24 24 25 24 23 23 23 22 21 20 20
18 15 12 10 8 9 10 10 9 9 7 8 10 10 12 13 12 11 10 13 9 8 13 17 21 22 19 17 13 8 6 6 16 15 4 9 11 14 15 13 11 10 12 13 15 16 19 23 23 23 22 21 21 26 27 24 23 23 21 22 24 24 23 25 27 29 30 29 28 28 27 26 25 25 25 26 25 25 24 23 23 22 22 22 22 22
15 11 10 9 9 11 11 9 8 6 3 8 12 10 10 11 12 10 9 10 8 10 12 15 19 20 16 14 12 8 9 12 17 12 5 5 5 8 9 9 10 12 12 12 16 20 19 18 17 14 15 18 23 26 25 24 24 22 21 23 23 22 24 28 29 29 28 27 26 26 26 25 24 25 26 26 25 24 23 22 22 21 22 23 23 23
8 7 8 8 10 12 12 10 7 4 3 8 12 11 11 12 10 11 11 5 7 12 14 15 17 15 12 12 10 8 12 17 18 15 8 3 4 4 7 8 8 9 10 11 15 17 14 14 15 15 17 24 27 26 25 25 23 21 22 21 21 24 29 31 29 27 26 24 24 25 25 24 23 24 25 25 23 23 22 21 21 22 23 24 24 24
6 5 5 7 9 9 8 9 8 6 4 6 5 5 10 10 8 10 8 5 7 12 12 13 15 12 13 15 11 9 13 17 18 19 15 10 9 8 6 6 6 7 10 11 13 12 10 11 13 15 19 24 24 24 27 27 23 20 21 20 22 29 31 27 25 25 24 24 24 25 25 24 22 22 22 23 22 22 23 22 22 23 23 23 24 24
5 4 4 6 8 8 9 9 7 6 4 9 6 2 5 9 7 5 7 7 9 10 9 9 11 13 14 13 10 10 14 15 15 15 13 11 11 10 7 7 7 8 9 9 10 12 11 8 8 13 19 20 21 24 27 26 22 19 19 21 26 29 25 23 24 25 24 24 24 25 25 24 23 22 21 22 23 23 23 22 22 22 22 23 23 23
3 3 3 3 2 4 8 7 2 5 4 6 9 6 8 10 7 8 9 9 8 8 8 9 11 15 13 11 11 12 12 13 14 11 9 9 11 11 9 7 7 9 9 8 9 11 10 8 8 12 15 17 20 24 27 27 22 18 19 23 27 24 21 22 24 23 23 25 25 25 26 25 23 22 21 21 22 22 22 22 22 22 22 22 22 22
1 2 1 3 2 2 5 5 3 7 9 7 7 8 7 7 5 7 11 12 10 10 9 9 12 14 12 11 12 10 8 11 11 9 8 8 10 10 9 8 8 9 8 7 9 10 10 10 9 9 10 14 20 24 27 28 24 19 20 24 24 22 22 23 23 23 24 25 25 26 26 25 24 23 21 21 22 23 23 23 23 23 23 23 23 22
2 1 2 2 2 3 5 6 4 9 12 13 12 10 8 9 10 7 5 6 6 7 9 11 13 14 12 11 10 8 8 9 9 8 7 8 8 8 7 8 8 7 7 7 8 9 10 10 8 7 8 11 17 21 24 26 26 23 23 24 23 22 23 23 24 23 23 24 25 25 25 25 25 24 21 21 22 23 24 24 23 22 22 22 22 21
4 1 2 2 2 2 3 5 7 10 11 12 12 9 10 12 13 12 10 9 8 7 6 7 8 9 10 11 10 10 9 8 7 7 7 7 7 7 6 7 7 6 6 7 7 8 9 7 6 7 7 9 15 19 21 25 25 23 22 22 22 21 22 23 23 23 22 23 24 24 25 25 25 24 23 22 22 23 23 24 23 22 21 22 21 20
2 0 0 2 1 1 6 10 10 8 9 8 6 6 8 11 13 14 13 11 11 10 8 6 5 3 4 8 11 10 8 7 8 7 7 6 5 4 4 6 6 5 4 3 5 7 8 6 7 8 7 9 15 19 21 23 22 20 19 20 21 21 22 22 22 21 21 22 23 24 25 25 25 25 24 24 24 24 24 24 24 24 23 24 23 21
2 3 3 4 3 4 8 10 8 9 10 8 5 4 6 7 10 13 15 14 14 14 11 7 2 1 3 5 7 8 7 6 7 7 6 5 3 3 4 5 5 4 3 3 6 8 7 6 7 8 7 9 14 19 20 22 23 22 21 21 21 22 22 22 21 20 20 21 22 23 24 24 24 25 24 24 24 25 24 24 25 25 24 25 25 24
3 5 5 3 4 6 7 5 5 6 9 10 10 9 7 6 8 11 13 15 15 14 14 13 7 3 4 5 5 6 6 6 6 5 4 4 4 4 4 3 3 3 3 5 7 8 8 7 7 8 7 9 14 18 19 20 23 24 23 22 22 23 23 22 21 20 20 21 22 23 23 23 24 24 24 23 23 22 21 22 22 23 22 22 23 23
6 7 6 4 5 9 10 6 3 4 8 11 11 9 8 7 7 9 10 12 13 13 13 13 12 9 7 6 6 7 7 5 4 4 3 4 4 4 4 4 4 3 4 5 6 6 6 7 8 8 9 12 16 19 19 19 21 24 25 25 24 23 23 23 21 20 20 22 22 23 24 24 23 24 24 23 22 21 19 18 19 21 21 21 20 20
Wind_Direction
108 143 218 215 193 173 192 207 199 121 92 131 143 153 197 218 253 249 255 307 332 235 258 238 254 270 269 272 277 276 251 229 244 256 261 264 265 266 266 265 262 259 262 278 285 280 278 279 277 271 260 251 248 240 236 237 239 246 250 251 252 253 250 245 245 247 243 233 222 217 222 233 241 248 254 250 246 240 231 225 218 217 229 253 258 199
91 205 230 207 163 169 197 210 198 212 34 68 126 206 246 226 242 259 249 312 329 223 279 301 281 273 267 266 273 278 269 250 240 246 256 259 261 262 259 261 262 262 271 285 283 279 278 274 266 258 247 242 243 236 234 236 238 244 248 249 251 251 245 243 246 246 245 233 220 214 218 233 244 251 256 251 241 233 227 223 215 214 222 238 271 224
172 234 228 173 154 157 177 196 196 230 260 279 159 222 271 235 230 292 341 337 339 206 289 338 304 281 272 259 264 267 263 258 243 236 248 258 263 261 251 254 259 265 272 270 268 275 276 267 262 256 240 236 241 238 235 235 238 242 246 249 249 249 242 242 247 246 244 238 225 220 225 239 248 260 266 255 247 234 219 216 211 209 216 225 260 245
206 248 230 165 152 145 145 173 178 204 245 221 176 212 253 223 165 280 308 317 341 165 286 323 298 283 275 252 255 260 261 273 265 240 243 249 256 258 253 251 246 244 253 258 263 270 271 264 261 252 237 234 238 239 236 231 234 238 242 248 247 246 242 241 249 249 244 240 229 223 229 244 253 268 275 264 262 245 211 205 205 205 211 218 243 249
218 248 186 139 147 157 154 155 166 183 234 224 206 221 232 152 188 247 284 300 346 13 329 334 299 284 272 237 252 266 287 294 262 235 250 241 240 254 260 251 237 233 236 242 256 260 265 266 263 255 240 235 233 232 234 230 231 236 240 246 246 245 243 243 250 251 243 236 227 221 229 250 262 271 275 269 270 249 206 196 200 198 203 208 227 247
240 225 106 112 140 165 163 178 182 177 206 253 227 219 210 173 179 206 16 10 2 323 315 18 313 283 292 251 264 289 316 292 263 248 266 251 227 232 246 244 233 232 232 232 246 252 259 266 269 267 250 235 234 229 231 231 227 232 235 240 242 240 240 244 252 251 238 225 220 217 227 250 262 270 273 267 268 247 202 194 197 190 194 201 213 234
242 183 112 124 157 171 185 220 199 165 162 259 248 209 196 169 148 145 115 69 309 263 277 63 137 276 298 270 263 284 288 285 288 281 273 266 245 225 232 238 228 228 227 225 237 241 247 252 257 261 248 233 234 228 224 223 218 221 225 230 234 234 239 246 252 250 233 214 213 213 221 240 252 264 267 264 270 254 210 198 200 195 198 204 207 216
152 138 130 140 145 167 205 224 186 160 154 233 278 166 164 156 152 154 124 121 234 274 302 96 131 271 287 263 245 273 278 282 287 280 272 265 253 240 239 237 225 222 214 206 220 226 232 234 231 240 240 234 232 225 210 206 205 209 216 223 227 230 239 248 248 247 234 213 211 213 214 230 245 255 259 263 274 263 221 202 206 204 204 205 205 207
107 162 175 164 156 186 204 177 163 162 166 256 307 106 134 132 131 125 101 110 324 348 303 227 142 223 276 270 265 302 271 274 275 270 269 264 248 237 240 238 228 221 208 198 206 213 217 218 223 229 233 234 229 221 207 197 196 202 211 218 222 226 235 247 247 242 238 221 215 218 215 223 240 251 260 269 277 271 244 224 221 214 205 200 199 199
77 195 187 167 177 198 179 132 166 171 176 192 116 91 82 81 80 81 94 111 57 338 250 195 165 206 276 266 182 121 255 259 265 266 266 265 252 234 238 238 232 219 206 208 211 215 216 218 225 229 233 234 224 217 209 194 190 195 204 210 215 225 232 243 249 244 242 233 222 225 223 222 237 251 265 275 273 274 280 261 236 223 207 193 189 188
50 285 192 175 192 177 115 76 162 161 147 138 112 85 70 54 45 52 45 78 69 286 253 190 180 176 285 275 183 174 228 226 247 280 288 287 265 236 237 235 221 207 203 206 217 229 234 240 240 236 234 229 214 210 209 201 197 196 201 207 214 224 232 240 250 250 246 241 233 232 230 225 236 254 271 280 273 278 304 315 249 211 196 183 180 179
253 313 197 251 171 131 106 67 21 98 136 124 98 108 95 21 14 29 355 47 122 252 269 235 197 159 238 259 215 245 271 232 216 260 281 284 267 234 226 234 227 213 213 201 213 231 241 250 244 234 232 224 206 203 206 206 204 201 202 208 216 222 229 238 248 253 251 245 242 237 236 234 238 256 275 286 282 289 316 347 57 148 164 163 165 167
241 212 196 287 184 151 133 97 38 28 153 107 107 127 117 12 6 343 296 128 210 252 271 268 259 175 238 256 269 278 278 257 220 225 242 245 255 249 233 247 272 283 240 220 215 219 211 217 216 216 225 216 200 198 203 206 204 203 203 206 216 221 226 237 245 252 253 247 245 239 237 241 241 255 275 290 285 289 311 343 60 106 131 142 149 154
277 252 180 176 228 185 166 155 145 188 198 168 152 146 144 143 166 230 242 238 252 272 304 213 213 256 267 271 257 250 258 257 229 215 229 224 229 244 246 274 305 313 261 236 227 218 198 201 200 206 218 213 199 193 198 206 203 202 202 205 215 219 223 234 241 250 253 247 246 244 239 241 241 254 274 291 283 277 294 320 46 105 125 136 143 149
217 267 195 183 188 171 183 189 163 149 164 186 170 142 162 169 178 204 203 199 225 254 313 240 199 203 224 257 243 232 249 267 253 219 226 233 233 238 267 290 294 285 259 231 228 228 208 197 196 203 217 220 208 193 194 205 205 202 202 205 213 216 217 227 235 243 251 248 247 248 246 246 243 250 268 286 283 269 277 296 322 125 135 145 152 157
209 257 222 190 156 162 181 189 139 130 152 205 145 116 201 196 148 147 183 172 152 167 267 220 228 222 220 275 279 252 244 253 248 234 220 235 243 238 261 266 257 258 251 221 220 233 220 193 191 200 210 221 220 206 201 208 211 209 205 207 214 216 215 221 229 236 246 250 250 251 252 252 248 248 261 276 284 271 264 273 276 161 143 150 157 163
200 270 336 109 145 171 182 170 156 160 157 160 169 186 209 157 111 112 233 82 86 228 241 186 245 276 296 280 269 251 253 253 238 229 219 227 229 220 238 241 234 235 232 217 214 224 212 181 186 202 205 214 219 217 213 212 219 221 216 213 216 220 221 220 225 230 241 248 248 251 252 254 254 250 254 264 274 276 260 250 243 212 169 162 163 167
185 269 339 159 183 205 206 122 161 230 133 141 191 194 145 66 96 110 229 351 60 242 262 202 233 260 278 265 270 235 246 253 244 230 225 232 213 213 232 229 225 224 213 211 218 225 217 183 184 199 204 211 215 220 223 220 224 230 229 228 224 224 228 229 229 229 237 246 246 248 249 251 256 254 252 255 263 272 263 228 214 205 192 186 184 183
176 223 285 323 192 216 41 110 170 296 143 151 217 191 133 169 198 130 181 204 182 226 267 264 242 241 218 233 264 225 226 247 255 235 219 231 218 214 229 223 222 221 203 206 217 221 216 197 192 195 202 211 214 220 228 225 227 231 233 236 234 233 233 235 237 233 233 240 242 245 246 247 252 255 255 252 254 262 264 238 201 192 191 191 193 195
132 219 251 317 247 143 79 189 199 197 186 24 343 195 138 166 188 172 173 173 171 202 242 282 283 241 224 212 210 225 231 240 249 227 216 229 220 213 218 211 211 208 198 203 208 216 214 205 204 197 198 207 212 219 226 227 228 229 230 234 236 237 234 230 230 229 230 234 238 242 244 244 247 250 253 251 249 251 255 255 231 197 192 192 195 198
116 223 225 68 293 230 172 209 205 186 174 157 166 186 191 156 147 198 222 127 134 174 209 259 268 253 241 189 191 216 227 228 221 203 216 230 220 215 213 201 199 196 196 202 201 212 216 206 207 202 198 203 210 217 223 227 230 228 228 231 233 236 235 231 229 226 227 230 234 240 242 244 248 248 248 247 246 243 243 246 244 230 214 203 199 200
190 218 203 131 204 217 202 233 230 186 186 190 190 191 192 186 158 181 228 192 136 181 184 200 256 262 244 192 201 213 223 231 215 188 217 236 222 222 218 202 201 198 200 206 201 207 215 208 200 192 185 187 197 207 213 221 227 228 229 231 232 235 236 235 234 230 229 228 231 236 239 244 248 249 246 239 239 241 238 239 237 234 233 226 218 212
190 163 181 182 203 211 209 342 338 199 202 210 230 215 195 195 194 198 217 198 155 221 175 142 262 274 247 185 206 225 231 237 201 190 221 245 232 232 234 212 210 212 210 211 208 213 221 212 188 182 183 184 192 204 211 216 224 229 232 233 232 234 237 238 238 237 235 232 231 233 234 240 244 247 247 237 231 235 236 238 235 232 231 230 230 227
185 126 196 204 212 339 340 335 3 43 156 215 237 225 198 208 214 203 192 158 163 217 195 191 248 261 289 208 211 258 269 242 221 210 222 250 256 249 238 215 204 209 214 217 219 226 229 210 181 195 202 196 194 200 209 216 222 229 235 236 235 237 238 240 240 240 238 234 231 230 229 232 236 239 242 239 235 233 232 233 231 228 228 227 227 228
185 180 198 198 170 180 93 203 260 222 199 212 228 215 202 214 213 180 82 112 222 218 193 206 242 245 285 316 314 307 276 255 254 230 217 242 254 245 233 221 209 208 211 220 225 229 225 215 209 216 223 219 209 202 205 215 221 226 232 236 238 241 240 239 239 239 240 236 232 230 227 226 229 232 235 237 238 237 234 231 227 223 223 222 223 224
181 183 185 189 204 206 196 203 206 195 196 206 216 204 202 204 196 193 215 213 229 222 192 208 242 251 293 323 328 300 262 258 260 239 220 241 242 239 235 223 214 207 206 214 217 218 222 224 223 222 223 227 225 214 207 211 218 223 229 233 236 241 243 241 238 237 239 238 234 232 228 225 224 227 230 232 235 237 237 233 227 222 219 217 218 220
175 196 191 197 210 217 224 226 152 132 157 196 210 207 204 201 195 200 216 213 224 232 223 230 243 259 266 250 248 277 252 245 257 247 236 244 239 237 237 226 219 214 211 212 209 215 224 228 227 224 221 223 226 224 216 212 214 219 225 228 230 234 240 241 240 237 237 236 235 233 231 228 226 226 228 230 230 233 235 235 231 226 224 219 215 215
178 216 202 206 217 221 229 226 168 148 174 198 207 207 202 199 195 199 214 220 222 230 243 243 237 245 253 242 216 247 250 247 262 258 246 241 235 229 225 216 215 223 223 213 210 216 217 221 224 222 221 221 221 223 219 215 217 220 224 227 226 226 231 236 239 239 237 235 234 235 234 233 233 232 232 232 231 230 231 233 233 231 229 223 217 216
195 221 207 209 222 227 232 228 187 171 189 196 202 204 199 196 194 198 215 225 223 223 243 247 239 236 247 249 230 228 234 236 248 249 234 226 234 221 206 203 211 219 219 213 219 222 218 220 222 216 217 217 214 217 216 215 218 223 226 226 223 221 224 229 232 236 237 234 234 236 236 236 235 234 233 233 232 232 230 230 232 232 231 227 225 225
204 216 205 207 221 228 233 230 196 186 204 204 202 202 196 194 196 199 211 223 226 226 236 246 249 245 245 251 243 227 217 227 240 224 163 203 231 220 206 214 220 219 215 216 221 223 220 222 222 215 212 210 208 211 211 212 218 225 227 222 217 215 217 220 225 229 231 234 235 236 235 233 233 231 229 227 227 228 228 229 231 231 230 229 229 230
226 212 203 204 219 227 229 229 213 205 216 217 211 205 196 193 196 200 211 222 225 229 236 246 255 257 252 251 249 227 203 224 241 230 218 233 235 227 221 221 222 223 225 224 224 224 224 223 220 213 210 210 209 206 206 212 218 226 228 221 214 212 210 212 218 221 225 231 235 235 232 228 228 226 224 223 222 222 223 224 226 227 228 228 227 228
246 224 207 205 220 225 220 222 221 218 226 229 221 204 190 193 196 200 210 218 217 223 235 244 253 258 253 238 236 220 198 219 235 238 249 256 244 235 233 225 218 222 226 225 225 227 225 220 213 208 209 212 208 203 208 214 214 220 226 219 211 209 205 206 211 215 221 227 231 232 230 227 225 223 220 219 219 221 222 221 222 223 224 225 225 226
264 244 216 209 220 220 214 217 217 217 228 235 219 198 191 196 201 204 213 222 220 216 223 233 240 245 233 180 206 216 206 216 226 227 240 251 247 241 236 227 219 220 223 223 224 225 224 219 211 207 210 209 204 206 212 213 212 221 227 217 206 202 198 199 204 209 214 220 225 229 230 229 228 227 225 222 219 220 222 222 223 224 225 225 225 224
268 255 229 216 219 217 216 217 216 218 225 211 184 196 202 201 202 206 214 222 222 217 220 233 241 241 220 173 196 208 207 214 220 221 230 241 246 243 235 227 220 220 224 224 224 225 225 218 210 213 217 214 211 214 217 216 219 230 229 213 199 195 193 193 197 202 207 211 217 223 228 231 234 237 238 234 227 221 219 219 222 224 226 226 224 222
264 258 239 229 227 218 215 219 226 227 208 158 181 201 205 204 204 209 219 227 225 221 224 238 249 248 233 211 204 199 213 226 232 240 241 241 244 243 235 225 218 220 225 226 226 229 225 214 208 213 219 222 222 221 218 216 221 224 217 203 194 191 189 189 190 194 200 203 208 215 221 226 232 238 243 243 241 236 229 224 222 220 219 219 219 220
247 254 246 234 230 220 212 222 235 242 161 180 198 202 196 200 208 214 228 236 232 224 222 234 248 250 242 238 231 214 230 260 275 261 252 247 245 240 232 232 230 228 229 227 225 225 220 210 209 211 216 222 224 220 214 214 217 214 205 196 191 188 186 185 185 189 193 197 201 207 212 218 224 229 235 238 241 242 241 238 233 227 221 218 218 219
227 242 246 235 226 223 226 229 239 259 223 198 200 193 176 184 197 205 226 239 232 224 218 226 242 247 242 243 243 233 251 298 288 267 257 246 238 228 226 235 241 239 236 231 225 224 222 218 216 216 217 220 220 217 214 215 214 207 197 189 187 186 183 181 182 187 190 193 197 202 206 210 214 218 222 225 228 232 235 238 238 237 234 232 230 229
214 221 232 238 223 215 233 238 233 239 234 207 193 192 184 188 195 196 214 237 231 215 210 219 238 244 241 242 237 210 184 260 265 267 258 209 206 219 226 235 243 243 234 227 225 228 228 226 223 221 218 216 216 217 218 216 209 198 189 185 185 183 181 181 184 188 190 192 195 199 202 205 208 211 213 215 218 221 224 227 230 232 233 235 236 236
217 215 221 236 231 212 222 234 228 232 227 190 188 193 187 188 180 173 210 238 227 199 198 209 229 238 238 240 228 181 143 224 252 260 208 147 191 219 226 235 240 238 237 232 229 231 232 230 228 223 216 211 212 217 217 211 200 190 185 186 185 182 183 187 190 192 193 194 195 197 199 202 205 208 208 208 210 213 216 218 221 223 223 225 228 229
221 219 215 225 234 225 226 232 230 241 223 179 185 191 180 164 146 155 215 232 207 200 198 200 220 230 230 233 226 189 180 222 245 247 183 154 221 226 216 222 223 227 236 238 236 238 237 232 225 215 209 210 215 217 212 201 192 188 188 188 185 185 192 197 198 197 196 195 194 195 197 200 202 203 203 203 204 205 208 211 211 213 214 215 218 220
230 223 215 223 231 228 233 239 235 250 232 185 186 181 158 141 150 192 218 199 174 201 205 200 213 223 224 227 221 198 206 226 243 251 244 270 295 252 224 228 228 232 237 240 244 245 237 227 221 213 214 218 218 214 203 192 187 188 188 185 184 194 202 203 201 197 194 192 192 193 196 198 199 200 200 199 199 199 201 204 205 207 208 209 212 214
250 232 214 223 229 227 238 246 248 256 221 172 175 162 150 158 194 210 200 157 177 205 207 199 203 211 223 230 221 209 223 232 242 254 263 274 274 262 252 252 257 259 250 247 252 245 226 223 224 221 225 224 217 207 196 187 185 186 183 182 194 203 205 201 197 193 190 189 191 192 194 196 197 197 197 196 195 195 197 201 204 206 206 207 209 210
261 262 233 219 224 229 233 230 238 265 210 155 149 145 178 197 210 180 176 197 205 203 192 184 195 207 222 232 223 217 231 239 243 250 260 269 271 266 256 243 245 254 248 244 248 236 220 218 220 223 230 225 212 202 194 186 184 183 179 188 202 205 200 194 192 189 186 188 190 191 193 194 193 194 194 194 194 194 196 199 202 204 205 205 206 207
270 270 274 275 260 241 238 227 243 328 311 181 185 211 217 212 187 153 176 205 211 205 192 182 199 211 213 221 225 222 226 238 246 248 248 257 265 265 257 242 238 247 246 240 243 235 218 215 225 228 228 218 203 196 193 188 184 177 181 196 202 196 189 188 187 184 184 187 190 192 194 194 192 192 192 193 194 194 195 198 199 201 203 205 206 206
222 145 204 272 277 259 261 265 312 337 333 317 291 289 280 259 232 185 192 200 198 200 198 191 206 214 209 211 220 221 220 229 236 237 231 238 251 258 262 256 243 247 251 248 250 240 220 218 226 220 211 204 197 193 192 190 183 177 187 196 193 184 181 182 181 181 184 187 189 192 193 193 193 193 192 192 194 195 194 195 196 197 200 202 204 204
315 87 148 208 268 281 248 245 297 332 334 328 320 331 355 348 335 324 280 251 233 218 208 201 202 204 204 206 209 209 214 219 224 230 231 236 246 250 257 259 252 247 247 247 246 230 212 211 211 194 187 194 193 190 190 189 186 186 189 188 183 179 180 179 180 183 185 187 190 192 192 192 193 194 194 194 196 198 197 195 194 195 198 199 201 203
281 260 161 201 308 335 271 279 322 331 321 315 319 342 13 8 352 345 338 327 319 308 283 253 231 206 190 187 196 213 218 203 206 231 235 227 236 243 247 255 258 250 240 239 228 200 184 181 182 180 179 185 189 189 189 188 189 190 187 180 176 177 179 181 183 184 185 188 190 191 192 193 193 193 195 196 198 202 203 201 199 199 200 201 201 203
244 48 149 239 228 217 272 290 307 304 287 287 309 346 6 3 350 341 336 332 327 323 321 319 315 288 201 186 190 207 217 198 195 216 220 208 218 244 252 254 254 247 240 237 210 185 170 167 179 184 185 187 186 187 187 187 187 186 181 177 176 177 180 185 186 186 188 189 190 192 194 195 194 193 195 197 200 202 202 201 201 202 204 206 205 203
290 320 291 281 292 278 274 288 310 312 299 288 291 335 2 3 347 334 329 327 327 325 323 321 317 259 263 248 208 192 201 213 206 200 198 198 196 213 244 256 249 228 205 178 184 184 173 171 182 182 187 192 187 185 187 188 187 185 182 180 180 180 183 186 187 188 189 189 191 193 195 196 197 197 196 198 201 204 206 206 206 208 211 214 215 214
260 270 261 270 288 276 272 294 328 320 303 297 304 324 346 357 341 328 322 320 320 321 319 315 301 241 237 262 246 208 208 221 211 185 184 212 205 191 212 239 242 228 204 172 174 181 180 181 182 183 192 195 188 188 191 191 190 191 190 188 188 188 188 186 184 185 188 189 192 193 193 195 198 199 199 199 200 204 210 214 216 218 220 222 224 226
234 249 251 249 261 265 267 275 290 285 281 284 294 311 328 339 329 314 310 312 312 314 317 316 307 288 261 243 230 224 223 215 188 170 193 228 215 174 178 199 209 220 208 174 167 178 189 189 184 187 199 197 191 191 195 196 197 198 198 197 198 197 194 188 183 184 188 191 192 193 193 194 196 197 200 201 201 201 204 211 218 224 226 229 231 233
Height
788 788 785 775 772 781 784 776 773 777 774 771 773 773 772 767 769 779 783 793 796 780 772 777 772 763 763 761 752 748 753 755 752 749 746 742 738 736 735 734 734 734 731 730 730 729 729 730 729 730 730 730 730 731 732 733 734 735 736 738 739 740 741 742 743 743 743 744 744 743 743 743 743 742 740 739 738 737 737 736 735 741 748 750 753 750
791 785 774 768 770 775 779 780 781 785 779 774 774 772 774 774 772 780 788 794 796 783 773 777 772 761 763 762 751 747 749 745 744 744 740 735 733 732 732 730 730 730 730 730 729 727 727 728 727 727 728 728 728 729 730 731 732 733 734 735 737 738 739 740 741 741 741 742 741 742 742 742 741 739 738 736 735 734 733 733 731 736 744 746 751 751
793 780 767 767 772 773 779 784 783 784 781 776 779 776 774 778 777 781 793 798 795 784 776 782 776 756 754 757 746 739 735 729 731 735 731 729 727 726 727 727 728 729 729 727 726 726 725 726 725 725 726 726 727 727 728 729 730 731 732 733 735 735 737 738 739 740 739 740 740 741 741 740 739 737 736 735 734 733 730 729 728 730 738 743 747 752
782 772 769 770 771 773 780 786 784 785 785 780 781 776 771 778 773 768 783 796 796 793 788 789 782 752 738 743 737 730 728 725 729 731 730 730 726 723 724 725 726 727 725 723 722 723 724 724 724 724 725 725 725 726 726 727 728 729 730 731 733 733 735 737 738 738 738 739 740 740 739 738 737 736 735 734 733 732 729 726 726 726 732 739 745 751
766 767 776 774 771 772 776 786 788 785 786 786 784 778 772 776 776 774 783 789 791 798 798 788 764 732 720 723 717 719 730 727 724 726 725 728 728 726 726 724 724 724 722 721 719 720 722 722 722 722 723 723 723 724 724 725 726 727 729 729 731 732 734 736 737 737 738 738 739 739 739 738 736 734 732 731 730 731 728 724 725 725 728 735 742 748
767 769 776 774 776 775 772 782 787 782 782 783 779 778 777 775 778 784 785 781 776 779 791 788 752 718 715 719 710 712 721 713 711 718 714 715 723 724 723 720 720 721 720 721 718 718 720 721 721 721 721 721 721 722 723 723 724 725 727 728 729 731 733 735 736 736 737 738 737 737 738 737 735 732 730 728 729 730 727 724 725 724 725 732 737 744
770 770 771 771 775 776 774 778 781 781 780 777 776 781 783 779 780 785 783 778 773 771 789 796 765 734 719 711 710 711 711 706 708 713 710 708 713 716 715 712 714 716 716 718 718 718 719 719 720 719 718 719 719 721 721 721 723 723 725 726 728 730 731 733 734 735 736 737 735 734 735 736 734 732 729 727 729 730 727 724 723 722 723 728 733 738
770 772 771 770 773 778 778 776 778 781 775 773 784 789 784 783 784 786 783 781 785 786 791 795 783 768 738 712 716 719 711 710 706 702 702 701 703 708 711 711 711 712 712 714 714 715 717 717 718 718 716 718 719 720 720 720 721 721 723 725 726 729 730 731 733 734 735 735 733 731 732 735 733 731 729 727 729 730 726 720 718 718 719 723 728 734
768 768 766 767 770 775 772 768 773 775 771 778 794 794 788 790 788 788 788 788 802 796 780 786 789 775 739 712 723 725 709 704 697 690 690 690 695 698 702 707 709 710 711 712 711 711 713 714 715 715 715 717 718 718 719 718 719 720 722 724 725 727 728 730 731 731 733 734 733 730 730 734 733 729 728 727 727 725 720 714 712 713 714 717 723 729
769 768 766 765 764 766 766 769 772 767 770 787 797 793 793 799 795 797 794 788 800 787 765 778 782 763 728 697 709 719 704 695 690 688 688 689 697 696 694 700 703 708 710 710 711 710 711 712 712 714 714 716 717 718 718 718 719 719 720 723 724 726 727 727 728 728 730 732 731 730 730 732 731 727 727 728 725 722 717 711 705 704 706 710 717 723
771 773 773 767 762 765 770 777 780 773 775 786 790 787 792 799 797 803 803 793 789 769 759 777 773 759 734 694 693 703 694 692 687 682 685 689 694 693 691 695 696 702 706 707 710 709 710 712 711 713 713 714 716 717 717 717 718 718 719 721 722 724 725 725 726 725 727 729 729 729 729 730 730 726 725 726 723 717 713 706 698 695 699 704 711 719
770 771 770 767 766 768 770 777 784 784 784 781 777 776 779 788 794 796 801 798 779 755 769 797 788 772 742 693 687 697 690 697 695 683 681 684 687 686 688 692 694 701 704 705 707 706 709 710 710 712 712 713 715 715 716 716 716 717 718 720 720 722 723 723 724 723 724 726 726 727 728 728 728 725 723 723 720 713 709 704 697 693 697 703 709 716
766 765 763 763 766 767 762 772 788 792 789 778 771 772 769 776 782 776 785 796 778 763 788 813 798 778 742 694 691 701 689 690 697 692 685 683 685 685 687 691 695 701 703 703 704 703 706 707 708 711 710 712 714 714 715 714 715 716 716 718 719 720 721 721 722 722 722 724 723 724 725 725 726 724 721 721 718 714 712 710 705 701 701 704 709 715
761 761 763 761 761 762 754 761 779 786 787 777 768 767 763 769 770 759 774 789 773 769 799 815 795 767 734 698 690 691 681 679 689 694 691 687 687 686 689 695 696 699 700 701 703 702 704 706 707 709 708 710 712 712 713 713 714 715 715 717 717 718 720 719 720 721 721 721 721 722 723 723 724 722 720 720 719 718 717 716 714 711 709 709 712 716
749 742 746 750 748 751 750 748 755 766 777 772 762 761 755 753 747 738 749 755 750 768 799 806 779 737 707 691 686 685 684 686 687 691 693 692 692 693 696 698 695 695 697 700 703 702 702 704 706 707 707 707 709 711 711 711 712 713 713 715 716 717 718 718 719 719 719 720 719 720 721 721 722 721 720 720 720 720 719 719 718 717 716 716 717 720
744 728 731 742 740 742 744 743 746 756 769 772 766 764 755 743 738 747 762 761 759 771 783 784 761 723 699 687 684 685 684 686 689 692 693 690 693 698 696 694 693 693 695 697 700 701 701 704 705 705 706 706 707 709 710 710 710 711 712 713 714 715 717 717 717 718 718 719 718 718 719 719 720 721 720 720 721 721 720 720 719 719 718 719 721 724
739 734 742 748 742 742 743 740 743 744 752 767 769 759 751 746 742 750 771 785 778 755 746 753 736 712 701 682 670 673 671 672 679 685 688 687 693 697 692 690 691 691 693 694 697 699 699 702 704 704 704 704 705 706 707 708 709 709 710 711 712 714 715 715 715 716 717 717 717 717 717 718 719 719 719 720 721 721 722 721 721 721 720 721 724 727
723 730 748 751 744 748 749 743 744 742 742 758 762 749 747 753 748 740 745 764 771 747 731 735 717 698 697 678 662 667 666 663 667 673 679 685 691 692 689 689 689 688 691 692 695 699 699 700 702 702 703 703 703 704 705 707 708 708 709 709 711 712 712 713 714 714 715 716 717 717 717 718 718 718 719 720 721 722 722 723 723 723 723 724 726 729
719 723 742 757 752 749 750 746 746 749 748 750 748 740 740 744 745 746 740 737 747 740 722 724 723 708 695 676 660 661 662 658 663 670 673 675 681 684 685 688 687 688 690 689 692 696 696 697 699 700 701 701 702 702 703 706 707 707 708 708 709 710 711 712 712 713 714 715 716 716 716 717 717 718 719 720 721 721 722 723 724 724 725 727 728 731
722 720 733 757 757 748 751 748 742 745 750 752 749 743 742 740 736 738 737 728 727 724 709 710 715 696 678 673 663 658 658 653 655 662 662 663 672 678 680 682 683 686 686 686 688 691 692 694 695 697 698 699 700 701 702 704 705 706 707 707 707 708 709 711 712 713 714 714 715 716 716 716 717 718 719 720 721 721 721 723 724 725 726 728 730 732
725 721 727 752 760 753 749 739 728 731 742 748 748 745 744 745 741 736 735 733 725 716 707 703 691 666 661 670 661 653 654 649 650 657 654 656 666 674 676 675 677 681 682 683 686 687 689 691 692 694 696 698 699 700 700 701 702 704 705 705 706 707 708 709 710 711 712 713 714 714 715 715 716 717 718 720 721 721 721 722 723 725 726 728 730 732
724 720 726 749 758 749 739 730 725 727 731 732 732 733 731 733 736 730 726 734 733 718 708 705 685 654 652 664 658 652 653 650 654 657 652 652 660 669 674 674 675 678 679 682 684 685 687 688 690 693 695 697 697 698 699 699 700 701 702 703 704 705 706 707 708 710 710 711 712 712 713 713 714 716 717 719 720 721 721 721 722 724 726 728 730 732
714 717 725 741 745 737 733 734 734 730 727 728 727 726 725 725 724 716 709 722 733 724 717 723 703 663 651 659 657 655 658 658 663 662 654 653 659 669 676 677 679 679 680 683 683 684 686 687 689 691 692 695 695 696 697 697 698 698 699 701 702 702 704 704 706 707 708 710 710 711 712 712 713 714 716 718 719 720 721 722 723 724 725 728 730 732
715 721 724 729 734 735 735 734 735 733 731 733 729 724 725 722 715 714 716 723 728 717 712 722 707 667 652 659 660 664 667 666 668 667 661 657 661 672 676 677 679 679 680 683 683 684 686 687 689 690 690 692 693 694 695 695 697 697 696 698 699 699 701 702 704 705 706 707 708 710 711 711 713 714 715 717 719 720 721 722 723 724 725 727 729 732
711 718 719 724 730 735 738 737 737 738 734 729 723 720 724 722 718 722 729 731 725 708 703 709 691 660 655 661 663 667 667 661 662 668 667 662 661 668 673 674 677 678 679 681 681 683 685 685 686 687 688 689 689 691 693 693 695 695 695 695 696 697 698 700 702 703 704 705 706 708 709 710 712 713 715 716 718 719 721 722 724 725 726 728 729 731
699 703 706 715 718 715 718 717 715 718 725 727 723 719 720 721 721 720 721 726 719 701 699 698 675 654 655 660 660 662 662 657 654 660 668 667 665 669 671 672 674 676 676 678 679 681 682 683 684 685 686 687 686 687 689 691 693 693 693 694 694 694 696 697 699 700 701 703 704 705 707 708 710 712 714 715 716 718 719 721 723 725 726 728 729 731
690 689 690 694 693 687 685 685 687 695 710 720 717 713 715 716 719 716 715 718 709 695 694 686 670 661 657 655 658 658 658 657 652 654 663 664 664 669 670 671 674 675 675 676 678 679 680 681 681 682 683 684 684 684 685 687 689 690 691 692 692 693 693 695 697 698 699 700 701 703 704 706 708 710 712 713 714 716 717 719 722 723 725 727 728 730
687 685 683 683 678 671 666 671 681 685 691 700 702 705 710 712 715 717 712 702 695 698 694 675 670 673 658 650 658 656 653 657 652 651 656 657 659 664 668 672 674 673 674 676 676 676 676 676 677 679 680 681 681 682 682 684 685 687 689 689 690 691 691 692 694 695 696 697 698 700 701 703 705 707 709 711 712 714 715 717 719 721 723 725 726 728
678 675 673 678 677 670 662 666 677 679 677 682 686 691 700 705 709 712 706 694 691 699 689 663 661 667 655 652 660 656 653 654 650 650 657 660 661 662 664 667 666 665 670 673 673 673 673 672 673 674 676 678 679 679 680 681 682 684 686 687 688 689 689 691 691 692 694 694 695 696 698 701 702 704 706 707 709 711 713 715 717 719 721 722 723 725
667 663 661 668 674 671 665 666 674 676 674 675 677 679 686 694 699 700 698 691 689 690 679 660 657 656 651 653 656 655 655 654 652 657 661 660 657 657 660 662 659 660 665 668 668 669 670 670 670 671 673 675 676 676 677 678 679 680 682 683 685 686 687 688 689 690 691 691 692 694 696 699 700 701 703 705 706 709 710 712 714 716 718 719 721 723
665 658 651 657 667 667 664 667 671 672 669 670 672 674 677 685 692 696 693 688 687 686 676 666 664 656 649 651 653 653 655 653 654 657 656 655 654 654 656 658 658 658 660 663 665 665 666 667 668 670 671 671 671 672 673 674 675 677 679 680 681 682 684 685 686 688 689 689 691 693 695 697 698 700 702 703 705 707 709 711 712 714 715 717 719 720
672 659 648 651 662 660 657 662 666 667 668 666 665 670 677 682 686 687 682 675 675 678 677 677 673 657 645 648 651 652 652 651 652 653 652 653 652 651 652 654 656 656 655 658 661 662 662 662 663 665 665 665 666 667 668 670 671 674 675 676 677 679 681 682 684 685 686 687 689 691 693 695 697 699 700 701 703 705 707 709 710 711 713 714 716 718
682 667 652 650 656 653 648 653 660 667 669 661 656 662 668 670 671 672 671 667 665 668 671 669 658 643 641 647 650 650 650 650 650 650 650 647 646 647 649 651 653 653 653 655 656 655 654 654 657 659 658 659 661 661 663 665 667 669 670 671 674 676 677 679 681 683 684 685 687 688 690 692 694 696 698 699 701 703 704 706 707 708 710 711 713 715
686 672 657 649 651 649 642 647 657 661 653 639 636 644 649 653 659 663 663 660 657 657 657 649 638 635 642 647 646 645 647 648 647 646 644 641 639 642 644 647 650 651 651 650 648 646 647 649 652 655 655 656 656 656 658 661 662 665 667 668 671 672 674 676 678 680 682 683 685 687 688 689 690 691 693 695 698 700 701 702 704 705 707 708 710 712
687 676 662 650 647 644 640 647 654 644 629 622 624 629 634 639 646 653 653 647 646 650 651 646 639 638 643 647 646 645 644 645 647 644 640 636 635 638 641 643 646 646 643 641 640 641 643 646 649 651 652 652 652 652 655 657 659 662 663 665 667 669 671 673 675 678 680 681 683 685 686 688 688 689 689 691 693 695 696 698 700 703 705 706 708 709
687 676 662 650 646 643 640 643 639 619 608 613 617 620 630 638 643 651 651 641 638 643 648 647 642 639 642 644 645 646 646 647 648 641 632 632 634 637 639 638 636 634 632 632 635 638 639 641 643 644 644 645 646 648 650 652 655 657 659 661 663 665 668 670 672 675 677 679 681 683 685 686 687 688 688 689 690 690 691 693 695 698 701 703 705 707
680 673 661 649 643 640 637 631 622 612 611 615 616 617 625 631 634 642 643 632 626 632 641 642 637 635 638 639 641 646 648 650 648 629 615 621 631 632 632 627 622 623 626 629 631 631 632 634 634 635 637 639 641 643 646 648 651 653 655 657 660 663 665 666 669 672 674 676 678 680 683 685 686 687 688 688 689 689 689 690 691 694 696 698 700 702
664 662 656 647 636 633 636 631 623 622 617 611 612 614 614 616 619 626 632 625 618 622 631 634 632 630 631 634 639 644 648 653 643 616 602 612 622 621 619 616 615 619 622 623 625 625 625 626 627 629 631 634 636 639 641 644 646 649 651 653 656 659 661 662 665 667 669 672 674 677 680 683 684 686 686 687 688 688 689 690 691 693 694 696 697 698
654 650 649 646 634 628 633 631 624 619 607 597 601 608 611 614 616 625 636 630 618 619 624 626 626 624 623 627 632 640 651 652 631 606 601 609 611 611 612 612 614 618 617 617 619 619 619 621 622 625 628 630 632 634 637 639 642 645 647 649 652 655 657 658 660 662 665 667 670 674 677 680 682 683 684 685 686 687 689 691 692 694 695 697 698 699
652 647 643 642 634 626 627 624 615 610 602 595 595 600 608 612 614 627 640 627 612 614 619 618 618 616 616 621 627 635 644 636 612 598 603 607 605 608 611 610 612 613 612 613 614 613 615 618 620 622 625 626 628 630 632 635 638 641 643 645 649 651 651 652 654 657 661 664 667 671 674 676 678 679 681 682 684 686 689 690 692 694 695 697 699 700
647 642 636 633 630 626 624 619 610 605 599 592 587 593 604 612 616 624 622 605 598 606 610 609 611 612 613 616 620 625 625 614 600 595 600 603 605 607 608 608 610 610 609 610 610 610 613 615 616 618 620 620 623 625 627 630 634 636 639 642 645 645 645 647 650 654 658 661 664 667 670 672 674 676 678 680 682 684 687 689 691 693 694 696 698 699
640 634 630 628 627 624 622 619 615 606 595 589 591 597 604 607 610 608 599 589 592 599 601 603 606 607 607 607 609 613 610 603 600 599 599 602 603 604 606 607 608 608 608 608 608 609 611 611 613 615 615 616 619 621 623 626 629 632 636 639 640 640 640 644 648 651 655 658 661 664 667 669 671 673 675 677 679 682 684 686 689 691 692 694 696 697
636 630 624 618 616 618 618 618 619 610 594 587 593 601 601 594 587 587 587 587 588 591 596 602 603 600 600 601 602 605 604 601 601 601 602 603 602 602 605 605 604 605 605 605 606 606 607 609 610 611 612 614 616 618 620 623 625 628 632 634 635 636 639 643 646 649 652 655 658 661 664 666 668 670 672 674 676 679 681 683 686 688 690 692 693 695
638 635 630 621 617 620 616 611 616 618 608 596 589 587 588 583 576 577 582 585 588 590 593 596 596 593 594 596 597 600 601 601 600 600 602 604 602 600 602 602 603 603 602 603 604 604 605 606 607 608 610 611 613 615 616 618 621 625 628 629 631 635 638 641 645 647 650 653 656 659 662 664 666 668 670 672 674 676 679 681 683 685 687 689 691 692
638 639 642 640 637 636 628 620 623 627 623 616 604 594 591 589 583 579 576 574 579 584 584 586 589 589 590 591 592 595 598 598 598 600 601 601 600 600 600 600 601 601 600 601 602 601 603 604 604 606 609 609 610 612 613 615 619 622 624 626 629 633 636 639 643 645 647 650 653 656 659 662 664 666 668 670 672 674 676 678 680 682 684 686 687 689
636 639 644 644 640 638 633 628 627 627 623 620 617 612 611 609 603 597 589 582 579 579 578 579 580 580 584 589 590 591 593 594 595 596 597 599 600 600 600 599 599 599 599 599 599 599 600 602 603 605 607 608 610 610 611 614 616 618 621 624 627 630 633 636 640 643 645 648 651 654 657 659 661 664 666 668 670 672 674 676 678 680 681 683 684 685
636 639 643 642 640 641 636 626 624 626 624 619 616 614 614 616 613 609 605 601 595 592 588 584 580 578 582 587 587 585 587 590 591 591 594 597 597 595 597 598 596 597 597 597 596 597 598 600 602 604 606 607 608 609 610 613 615 617 620 622 625 629 631 634 637 640 642 646 649 651 654 656 659 661 663 666 668 670 672 674 675 677 678 679 681 682
637 640 643 640 638 641 636 625 621 622 620 617 618 616 614 615 614 610 607 604 601 598 596 594 593 590 587 585 585 583 582 586 589 588 588 591 590 590 593 595 594 595 596 596 597 597 597 599 601 602 604 605 606 608 610 612 614 617 620 622 624 627 629 632 634 637 640 643 646 649 651 654 656 658 660 663 665 667 669 671 672 673 674 675 676 678
637 641 641 637 636 636 631 624 621 619 614 610 614 616 614 614 613 610 608 604 599 597 594 593 595 597 594 589 587 583 579 581 586 585 582 582 584 586 590 593 593 594 595 596 597 598 597 599 600 601 603 604 605 607 609 610 613 616 618 620 623 625 627 629 632 635 638 641 644 646 649 651 653 655 658 660 662 664 666 667 668 670 671 672 673 675
638 639 635 636 639 636 628 622 622 622 617 610 608 612 614 614 613 611 609 604 600 598 597 594 592 594 595 594 593 588 580 578 582 584 581 581 583 585 588 591 593 594 595 596 598 598 598 599 600 601 603 603 605 607 608 610 612 615 617 619 621 622 624 627 630 633 636 638 641 644 646 648 651 653 655 658 660 662 664 665 666 667 668 670 671 673
635 633 630 634 635 627 620 619 622 623 620 612 609 611 612 612 613 613 610 607 603 600 599 598 594 592 591 591 593 592 584 579 581 583 582 583 584 585 587 591 592 593 596 597 598 598 599 599 600 602 603 603 603 605 606 609 611 612 615 617 618 620 622 624 627 631 633 635 638 640 643 646 648 650 653 655 657 659 661 663 665 666 667 668 669 670